Regional Weather Roundup
Issued by NWS Wakefield, VA

Home | Current Version | Previous Version | Graphics & Text | Print | Product List | Glossary On
Versions: 1 2 3 4 5 6 7 8 9 10 11 12 13 14 15 16 17 18 19 20 21 22 23 24 25 26 27
000
ASUS41 KAKQ 051015
RWRAKQ

REGIONAL WEATHER ROUNDUP
NATIONAL WEATHER SERVICE WAKEFIELD VA
600 AM EDT THU MAY 05 2016

Note: "fair" indicates few or no clouds below 12,000 feet with no
significant weather and/or obstructions to visibility. * = Denotes
station may not report precipitation (e.g., rain,snow,etc.),
thunder or fog.

VAZ042-051-052>054-056-051100-
NORTHERN VIRGINIA

CITY           SKY/WX    TMP DP  RH WIND       PRES   REMARKS
WASH NATIONAL  DRIZZLE   51  48  89 NE10      29.65F
DULLES         CLOUDY    50  48  93 NE6       29.64F FOG
FORT BELVOIR   CLOUDY    50  48  93 VRB3      29.64S
QUANTICO       CLOUDY    53  50  89 E15       29.64F
FREDERICKSBRG* CLOUDY    52  52 100 NE6       29.62S
STAFFORD*      CLOUDY    50  48  93 NE8       29.66F
WARRENTON      CLOUDY    51  46  83 NE5       29.63S
CULPEPER*      CLOUDY    51  50  96 NE3       29.64S
MANASSAS*      CLOUDY    52  50  93 NE6       29.63F
LEESBURG*      CLOUDY    52  52 100 NE3       29.65F
WINCHESTER     RAIN      50  48  93 CALM      29.64F
FRONT ROYAL*   CLOUDY    50  50 100 NE5       29.63S
LURAY*         CLOUDY    52  52 100 N5        29.62R
$$

VAZ048-049-060>072-079>083-051100-
CENTRAL AND SOUTH CENTRAL VIRGINIA

CITY           SKY/WX    TMP DP  RH WIND       PRES   REMARKS
RICHMOND       DRIZZLE   52  51  97 E7        29.60S
CHESTERFIELD*  CLOUDY    54  43  66 NE5       29.60F
PETERSBURG*    CLOUDY    56  56 100 NE8       29.59S
HANOVER        CLOUDY    52  50  93 NE6       29.62S
TAPPAHANNOCK*  CLOUDY    52  52 100 NE5       29.62R
QUINTON*       CLOUDY    52  51  98 NE7       29.60R
CHARLOTTSVILLE LGT RAIN  53  50  89 NE9       29.61F FOG
GORDONSVILLE*  CLOUDY    52  51  99 NE7       29.62R FOG
ORANGE*        CLOUDY    52  52 100 NE6       29.63F FOG
LOUISA*        CLOUDY    55  54  94 NE3       29.60S
BUMPASS*       CLOUDY    52  51  97 NE3       29.61S
FARMVILLE*     CLOUDY    55  55 100 N3        29.58S
CREWE*         CLOUDY    54  54 100 CALM      29.58S
FORT PICKETT*  NOT AVBL
CHASE CITY*    CLOUDY    56  54  94 E3        29.56S
CLARKSVILLE*   CLOUDY    55  55 100 NE3       29.55F
SOUTH HILL*    CLOUDY    55  54  97 E3        29.63R
LAWRENCEVILLE* CLOUDY    54  54 100 CALM      29.58R
EMPORIA*       CLOUDY    54  52  94 NE5       29.59S
$$

VAZ088>098-051100-
SOUTHEAST VIRGINIA

CITY           SKY/WX    TMP DP  RH WIND       PRES   REMARKS
NORFOLK        CLOUDY    53  50  89 NE14      29.59R
VIRGINIA BEACH CLOUDY    55  49  80 NE13      29.59R
NORFOLK NAVAL  DRIZZLE   53  51  93 NE13      29.61R FOG
WEST POINT*    CLOUDY    52  51  96 NE5       29.62R
SALUDA*        CLOUDY    51  50  95 NE6       29.60R
NEWPORT NEWS   CLOUDY    53  52  96 NE9       29.60R
LANGLEY AFB    CLOUDY    53  52  94 NE12      29.59R
FORT EUSTIS    CLOUDY    54  53  99 NE6       29.59R
WILLIAMSBURG*  CLOUDY    54  54 100 NE3       29.62R
HR EXEC AP*    CLOUDY    55  52  88 E7        29.61R
FRANKLIN*      CLOUDY    54  52  94 NE7       29.59R FOG
US460-WAKEFLD  CLOUDY    54  52  93 VRB6      29.59S FOG
$$

VAZ020-022-025-037-045-051100-
WEST CENTRAL AND SOUTHWEST VIRGINIA

CITY           SKY/WX    TMP DP  RH WIND       PRES   REMARKS
STAUNTON*      DRIZZLE   53  53 100 NE3       29.62F
WAYNESBORO*    CLOUDY    50  49  96 N5        29.60F
HOT SPRINGS VA CLOUDY    42  42 100 NW7       29.59F
LYNCHBURG      CLOUDY    52  50  93 N7        29.60S
DANVILLE       CLOUDY    55  53  93 NW6       29.57F
SOUTH BOSTON*  CLOUDY    55  54  95 NE3       29.57R
MARTINSVILLE   RAIN      47  47  97 NW5       29.63S
ROANOKE        LGT RAIN  51  48  89 NW6       29.62F
BLACKSBURG     DRIZZLE   47  44  88 CALM      29.65S
DUBLIN*        LGT RAIN  49  44  81 NW8       29.64F
MARION*        CLOUDY    45  40  83 NW6       29.68S
HILLSVILLE*    DRIZZLE   44  42  93 NW12      29.61F
RICHLANDS*     CLOUDY    40  30  68 NW6       29.68S
WISE*          MOCLDY    39  37  93 NW5       29.70S
ABINGDON*      CLOUDY    44  40  83 NW3       29.69S
$$

MDZ021>025-VAZ099-100-051100-
SOUTHERN MARYLAND AND THE DELMARVA PENINSULA

CITY           SKY/WX    TMP DP  RH WIND       PRES   REMARKS
PATUXENT RIVER CLOUDY    50  46  86 NE14      29.62F
BAY BRIDGE APT NOT AVBL
LEONARDTOWN    CLOUDY    50  45  81 NE3       29.63F
DOVER          CLOUDY    48  48 100 N9        29.64F
GEORGETOWN     CLOUDY    49  46  90 NE10      29.65R
EASTON         CLOUDY   N/A N/A N/A NE9       29.67F
CAMBRIDGE      CLOUDY    48  46  93 NE5       29.63S
SALISBURY      CLOUDY    49  46  90 NE9       29.63R
OCEAN CITY     CLOUDY    49  46  90 NE14G23   29.63S
WALLOPS ISLAND CLOUDY    50  47  89 N13G20    29.61F
ACCOMACK*      CLOUDY    48  32  53 NE9       29.60F
$$

NCZ012>017-030>032-051100-
NORTH CENTRAL AND EASTERN NORTH CAROLINA

CITY           SKY/WX    TMP DP  RH WIND       PRES   REMARKS
ROANOKE RAPIDS CLOUDY    54  54 100 NE6       29.57S FOG
RALEIGH        FOG       55  54  96 E5        29.55S VSB 1/4
ELIZABETH CITY CLOUDY    54  53  97 NE17      29.57R
AHOSKIE*       NOT AVBL
EDENTON*       CLOUDY    55  55 100 NE5       29.57S
CURRITUCK*     NOT AVBL
KILL DEVIL HLS CLOUDY    53  53 100 N7        29.55S FOG
MANTEO         CLOUDY    53  53 100 NE13G18   29.56S
CAPE HATTERAS  CLOUDY    57  56  96 NE14      29.53R
TARBORO*       CLOUDY    56  55  94 NE8       29.57R
GOLDSBORO      CLOUDY    61  61 100 NE7       29.52S
WASHINGTON     CLOUDY    57  55  93 E6        29.54R FOG
GREENVILLE     CLOUDY    59  57  94 NE7       29.59R
NEW BERN       CLOUDY    60  57  89 NE10      29.55S
WILMINGTON     FOG       59  58  96 NE3       29.52S VSB 3/4
$$

VAZ048-051100-
ELSEWHERE

CITY           SKY/WX    TMP DP  RH WIND       PRES   REMARKS
HARRISBURG PA  CLOUDY    49  46  90 NE6       29.68F
BALTIMORE      DRIZZLE   50  48  93 NE10      29.64F FOG
ANNAPOLIS      CLOUDY    50  48  93 NE7       29.64F
ANDREWS AFB    CLOUDY    49  47  94 NE9       29.63F
PHILADELPHIA   CLOUDY    50  43  77 N14       29.67F
HENDERSON NC   CLOUDY    56  56 100 NE3       29.56S FOG
GREENSBORO     CLOUDY    53  47  79 N9        29.58S
ROCKY MOUNT    CLOUDY    58  55  90 NE7       29.55S
$$

VAZ100-051100-
MARINE

STATION/POSITION TIME  TEMP    WIND        PRES    WAVE   SWELL
                       AIR SEA DIR/SP/G            HT/PER HT/PER
                 (UTC) (F)     (DEG/KT/KT) (MB)    (FT/S) (FT/S)
BRANDYWINE LGT   0900   48      50/ 17/ 19 1004.0F
CAPE MAY NJ      0900   48 57   30/  4/  8 1003.7F
LEWES DE         0900   49 55   40/ 14/ 17 1003.7F
15NM E FENWICK I 0950   48 51              1002.5F   7/ 8
OCEAN-CITY-INLET 0900   49 55   50/  7/ 14 1002.6F
WACHAPREAGUE VA  0900   51 59   30/ 17/ 22 1002.4S
THOMAS POINT MD  1000   50 58   50/ 13/ 15 1004.8F
GOOSES REEF MD   1000   52 59   40/ 12/ 16 1004.4F   1/ 2
COVE POINT MD    0900   49      80/ 12/ 15 1004.1F
SOLOMONS ISLAND  0900   51 61   40/  7/  9   N/A
BISHOPS HEAD MD  0900   51 59   40/ 11/ 17 1002.3F
PINEY POINT MD   0900           60/  7/ 10   N/A
POTOMAC MD       1000   52 60   50/ 14/ 17 1001.9F   1
CAMBRIDGE MD     0900   51 61   40/  9/ 13 1003.0F
LEWISETTA VA     0900   52 62   50/  8/ 13 1002.8F
RAPPAHANNOCK LGT 0900           30/ 17/ 19 1002.5F
STINGRAY PT      1000   53 61   50/ 14/ 17 1002.7R   2/ 3
YORK RVR RNG VA  0900   54      40/ 14/ 16 1001.0F
YORKTOWN VA      0900   54 63   40/  8/ 11 1001.5F
JAMESTOWN VA     1000   53 67   20/  6/  8   N/A     0
DOMINION TERM VA 0900   54      60/  6/ 10 1001.6F
KIPTOPEKE VA     0900      61   60/ 14/ 20   N/A
CHES BAY BRIDGE  0900   53 62   30/ 19/ 22 1000.9F
CAPE HENRY VA    0900   52      40/ 20/ 22   N/A
CHESAPEAKE LGHT  0900   50      30/ 24/ 26 1001.2F
WILLOUBY STN VA  0900   54      30/ 14/ 16 1002.6R
CAPE HENRY BUOY  0912      56                N/A     5/ 6
CAPE CHARLES BUO 0926      58                N/A     5/ 6   2/12
OFFSHORE WE BUOY 0921      55                N/A     6/ 6   2/18
64NM E OF VA BCH 0950   52 53   30/ 16/ 19 1000.2R   5/ 6   2/ 8
DUCK PIER NC     0900   53 61   30/ 20/ 23 1000.1F
44100 DUCK FRF   0924      57                N/A     5/ 6
44056 DUCK FRF   0911      60                N/A     4/ 6
OREGON INLET NC  0900   53 62   10/ 13/ 18 1000.2R
HATTERAS NC      0900   60 69   30/ 12/ 16  999.3R
DIAMOND SHLS NC  0950   63 71   30/ 16/ 17  999.1R   3/ 7   2/ 9
CAPE LOOKOUT NC  1000   62      30/ 14/ 19  999.3R
$$




USA.gov is the U.S. government's official web portal to all federal, state and local government web resources and services.